LGL94LC EGLC-ELLX

Flight info

Callsign LGL94LC
Flight time 1h 0m
Altitude 23000
Route SOQQA M87 UMTUM L9 KONAN UL607 REMBA
Aircraft DH8D/M-SDE2E3FGRY/H

Departure

Time 2026-04-27 10:26
Airport London City Airport (EGLC)

Arrival

Time 2026-04-27 11:26
Airport Luxembourg-Findel International Airport (ELLX)
Time Latitude Longitude Altitude Speed Heading
2026-04-27 09:48 51.50446 0.04514 20 ft 0 kts 302°
2026-04-27 10:23 51.50459 0.04484 20 ft 5 kts 304°
2026-04-27 10:23 51.50495 0.04444 20 ft 9 kts 348°
2026-04-27 10:23 51.50550 0.04456 20 ft 7 kts 59°
2026-04-27 10:24 51.50554 0.04483 20 ft 0 kts 87°
2026-04-27 10:25 51.50554 0.04517 20 ft 18 kts 91°
2026-04-27 10:25 51.50531 0.05210 25 ft 101 kts 91°
2026-04-27 10:25 51.50484 0.06673 40 ft 151 kts 94°
2026-04-27 10:25 51.50409 0.08392 439 ft 158 kts 93°
2026-04-27 10:26 51.50387 0.10156 975 ft 161 kts 80°
2026-04-27 10:26 51.50913 0.11714 1493 ft 164 kts 46°
2026-04-27 10:26 51.51763 0.12918 2083 ft 166 kts 37°
2026-04-27 10:26 51.52757 0.13942 2544 ft 176 kts 30°
2026-04-27 10:27 51.53880 0.14954 2799 ft 197 kts 28°
2026-04-27 10:27 51.55136 0.16195 2902 ft 224 kts 41°
2026-04-27 10:27 51.55862 0.18303 2927 ft 218 kts 76°
2026-04-27 10:27 51.56094 0.20762 2945 ft 221 kts 80°
2026-04-27 10:28 51.56309 0.23204 2948 ft 223 kts 79°
2026-04-27 10:28 51.56723 0.25621 2951 ft 223 kts 66°
2026-04-27 10:28 51.57356 0.27875 2951 ft 225 kts 64°
2026-04-27 10:28 51.58025 0.30176 2946 ft 227 kts 64°
2026-04-27 10:29 51.58698 0.32477 2944 ft 229 kts 63°
2026-04-27 10:29 51.59381 0.34809 2943 ft 230 kts 63°
2026-04-27 10:29 51.60062 0.37131 2962 ft 231 kts 63°
2026-04-27 10:29 51.60513 0.39559 3478 ft 224 kts 89°
2026-04-27 10:30 51.60303 0.41894 4403 ft 211 kts 97°
2026-04-27 10:30 51.60077 0.44241 5017 ft 212 kts 96°
2026-04-27 10:30 51.59851 0.46558 5624 ft 214 kts 96°
2026-04-27 10:30 51.59618 0.48924 6231 ft 216 kts 96°
2026-04-27 10:31 51.59381 0.51314 6817 ft 219 kts 97°
2026-04-27 10:31 51.59139 0.53739 7384 ft 222 kts 97°
2026-04-27 10:31 51.58808 0.56171 7923 ft 227 kts 111°
2026-04-27 10:31 51.57732 0.57996 8385 ft 231 kts 156°
2026-04-27 10:32 51.56158 0.58602 8927 ft 233 kts 171°
2026-04-27 10:32 51.54575 0.58997 9499 ft 235 kts 172°
2026-04-27 10:32 51.52954 0.59399 10079 ft 237 kts 172°
2026-04-27 10:32 51.51329 0.59801 10648 ft 238 kts 172°
2026-04-27 10:33 51.49672 0.60214 11192 ft 241 kts 172°
2026-04-27 10:33 51.48019 0.60627 11714 ft 243 kts 172°
2026-04-27 10:33 51.46332 0.61051 12239 ft 245 kts 172°
2026-04-27 10:33 51.44659 0.61471 12727 ft 247 kts 172°
2026-04-27 10:34 51.42960 0.61899 13216 ft 249 kts 173°
2026-04-27 10:34 51.41242 0.62455 13661 ft 253 kts 160°
2026-04-27 10:34 51.39830 0.64103 14029 ft 258 kts 131°
2026-04-27 10:34 51.38686 0.66337 14475 ft 259 kts 130°
2026-04-27 10:35 51.37563 0.68575 14877 ft 262 kts 130°
2026-04-27 10:35 51.36407 0.70879 15311 ft 263 kts 130°
2026-04-27 10:35 51.35271 0.73137 15743 ft 264 kts 130°
2026-04-27 10:35 51.34131 0.75398 16215 ft 261 kts 130°
2026-04-27 10:36 51.32982 0.77672 16685 ft 259 kts 130°
2026-04-27 10:36 51.31859 0.79888 17116 ft 257 kts 130°
2026-04-27 10:36 51.30747 0.82078 17508 ft 256 kts 131°
2026-04-27 10:36 51.29624 0.84288 17885 ft 256 kts 131°
2026-04-27 10:37 51.28498 0.86499 18237 ft 255 kts 131°
2026-04-27 10:37 51.27382 0.88689 18594 ft 255 kts 131°
2026-04-27 10:37 51.26267 0.90877 18936 ft 254 kts 131°
2026-04-27 10:37 51.25147 0.93069 19227 ft 255 kts 131°
2026-04-27 10:38 51.24021 0.95270 19455 ft 259 kts 131°
2026-04-27 10:38 51.22865 0.97531 19689 ft 261 kts 132°
2026-04-27 10:38 51.21718 0.99770 19944 ft 264 kts 131°
2026-04-27 10:38 51.20699 1.02215 20161 ft 268 kts 112°
2026-04-27 10:39 51.20229 1.05089 20405 ft 270 kts 102°
2026-04-27 10:39 51.19857 1.08031 20672 ft 271 kts 102°
2026-04-27 10:39 51.19483 1.10976 20928 ft 271 kts 102°
2026-04-27 10:39 51.19111 1.13886 21179 ft 271 kts 102°
2026-04-27 10:40 51.18729 1.16849 21426 ft 271 kts 102°
2026-04-27 10:40 51.18345 1.19799 21662 ft 271 kts 102°
2026-04-27 10:40 51.17966 1.22710 21885 ft 271 kts 102°
2026-04-27 10:40 51.17577 1.25676 22110 ft 271 kts 102°
2026-04-27 10:41 51.17194 1.28586 22316 ft 271 kts 102°
2026-04-27 10:41 51.16804 1.31534 22517 ft 271 kts 102°
2026-04-27 10:41 51.16419 1.34447 22716 ft 271 kts 102°
2026-04-27 10:41 51.16128 1.37440 22897 ft 271 kts 95°
2026-04-27 10:42 51.15985 1.40407 23085 ft 271 kts 94°
2026-04-27 10:42 51.15848 1.43434 23204 ft 275 kts 94°
2026-04-27 10:42 51.15709 1.46499 23239 ft 283 kts 94°
2026-04-27 10:42 51.15561 1.49672 23267 ft 291 kts 94°
2026-04-27 10:43 51.15406 1.52934 23268 ft 300 kts 94°
2026-04-27 10:43 51.15245 1.56315 23265 ft 309 kts 94°
2026-04-27 10:43 51.15080 1.59760 23266 ft 318 kts 94°
2026-04-27 10:43 51.14908 1.63304 23269 ft 326 kts 94°
2026-04-27 10:44 51.14728 1.66978 23264 ft 334 kts 95°
2026-04-27 10:44 51.14545 1.70675 23255 ft 340 kts 95°
2026-04-27 10:44 51.14357 1.74462 23265 ft 346 kts 95°
2026-04-27 10:44 51.14163 1.78326 23264 ft 351 kts 95°
2026-04-27 10:45 51.13968 1.82184 23259 ft 355 kts 95°
2026-04-27 10:45 51.13766 1.86147 23262 ft 359 kts 95°
2026-04-27 10:45 51.13564 1.90081 23266 ft 362 kts 95°
2026-04-27 10:45 51.13358 1.94080 23261 ft 365 kts 95°
2026-04-27 10:46 51.13147 1.98131 23258 ft 367 kts 95°
2026-04-27 10:46 51.12935 2.02183 23270 ft 369 kts 95°
2026-04-27 10:46 51.12719 2.06253 23262 ft 370 kts 95°
2026-04-27 10:46 51.12503 2.10325 23265 ft 371 kts 95°
2026-04-27 10:47 51.12284 2.14425 23253 ft 372 kts 95°
2026-04-27 10:47 51.12062 2.18544 23275 ft 373 kts 95°
2026-04-27 10:47 51.11840 2.22632 23256 ft 374 kts 95°
2026-04-27 10:47 51.11616 2.26737 23263 ft 374 kts 95°
2026-04-27 10:48 51.11388 2.30883 23254 ft 374 kts 95°
2026-04-27 10:48 51.11162 2.34974 23242 ft 375 kts 95°
2026-04-27 10:48 51.10931 2.39121 23259 ft 375 kts 95°
2026-04-27 10:48 51.10700 2.43243 23255 ft 375 kts 95°
2026-04-27 10:49 51.10468 2.47363 23253 ft 375 kts 95°
2026-04-27 10:49 51.10234 2.51478 23247 ft 375 kts 95°
2026-04-27 10:49 51.09998 2.55601 23253 ft 375 kts 95°
2026-04-27 10:49 51.09761 2.59734 23248 ft 376 kts 95°
2026-04-27 10:50 51.09518 2.63836 23261 ft 376 kts 96°
2026-04-27 10:50 51.09006 2.67897 23261 ft 375 kts 106°
2026-04-27 10:50 51.08286 2.71873 23245 ft 375 kts 107°
2026-04-27 10:50 51.07556 2.75855 23262 ft 375 kts 107°
2026-04-27 10:51 51.06824 2.79837 23256 ft 375 kts 107°
2026-04-27 10:51 51.06095 2.83815 23267 ft 375 kts 107°
2026-04-27 10:51 51.05368 2.87778 23259 ft 375 kts 107°
2026-04-27 10:51 51.04637 2.91767 23264 ft 375 kts 107°
2026-04-27 10:52 51.03908 2.95740 23248 ft 376 kts 107°
2026-04-27 10:52 51.03181 2.99698 23253 ft 376 kts 107°
2026-04-27 10:52 51.02446 3.03690 23252 ft 376 kts 107°
2026-04-27 10:52 51.01707 3.07702 23236 ft 376 kts 107°
2026-04-27 10:53 51.00970 3.11696 23240 ft 377 kts 107°
2026-04-27 10:53 50.99493 3.19677 23243 ft 377 kts 107°
2026-04-27 10:53 50.98757 3.23646 23240 ft 377 kts 107°
2026-04-27 10:54 50.98005 3.27685 23240 ft 377 kts 107°
2026-04-27 10:54 50.97265 3.31660 23234 ft 377 kts 107°
2026-04-27 10:54 50.96524 3.35627 23235 ft 377 kts 107°
2026-04-27 10:54 50.95774 3.39635 23233 ft 377 kts 107°
2026-04-27 10:55 50.95020 3.43653 23234 ft 377 kts 107°
2026-04-27 10:55 50.94278 3.47603 23231 ft 377 kts 107°
2026-04-27 10:55 50.93531 3.51570 23230 ft 377 kts 107°
2026-04-27 10:55 50.92783 3.55535 23232 ft 377 kts 107°
2026-04-27 10:56 50.92034 3.59492 23236 ft 376 kts 107°
2026-04-27 10:56 50.91275 3.63497 23245 ft 376 kts 107°
2026-04-27 10:56 50.90516 3.67476 23232 ft 375 kts 108°
2026-04-27 10:56 50.89745 3.71481 23227 ft 375 kts 108°
2026-04-27 10:57 50.88979 3.75453 23235 ft 374 kts 108°
2026-04-27 10:57 50.88221 3.79372 23236 ft 374 kts 108°
2026-04-27 10:57 50.87459 3.83307 23233 ft 374 kts 108°
2026-04-27 10:57 50.86701 3.87213 23230 ft 374 kts 108°
2026-04-27 10:58 50.85938 3.91140 23228 ft 374 kts 108°
2026-04-27 10:58 50.85174 3.95063 23226 ft 374 kts 108°
2026-04-27 10:58 50.84407 3.98993 23231 ft 374 kts 108°
2026-04-27 10:58 50.83641 4.02908 23228 ft 374 kts 108°
2026-04-27 10:59 50.82875 4.06821 23228 ft 374 kts 108°
2026-04-27 10:59 50.82105 4.10743 23232 ft 373 kts 108°
2026-04-27 10:59 50.81334 4.14663 23232 ft 373 kts 108°
2026-04-27 11:00 50.79790 4.22489 23235 ft 373 kts 108°
2026-04-27 11:00 50.79017 4.26394 23236 ft 373 kts 108°
2026-04-27 11:00 50.78246 4.30281 23239 ft 373 kts 108°
2026-04-27 11:00 50.77466 4.34204 23236 ft 373 kts 108°
2026-04-27 11:01 50.76689 4.38107 23241 ft 373 kts 108°
2026-04-27 11:01 50.75916 4.41983 23243 ft 373 kts 108°
2026-04-27 11:01 50.75132 4.45902 23244 ft 373 kts 108°
2026-04-27 11:01 50.74348 4.49820 23236 ft 374 kts 108°
2026-04-27 11:02 50.73569 4.53698 23242 ft 374 kts 108°
2026-04-27 11:02 50.72785 4.57597 23240 ft 373 kts 108°
2026-04-27 11:02 50.71995 4.61528 23234 ft 373 kts 108°
2026-04-27 11:02 50.71236 4.65425 23235 ft 373 kts 108°
2026-04-27 11:03 50.70483 4.69338 23230 ft 373 kts 108°
2026-04-27 11:03 50.69729 4.73244 23227 ft 373 kts 108°
2026-04-27 11:03 50.68977 4.77123 23227 ft 373 kts 108°
2026-04-27 11:03 50.68220 4.81021 23229 ft 373 kts 108°
2026-04-27 11:04 50.67468 4.84877 23228 ft 373 kts 108°
2026-04-27 11:04 50.66696 4.88789 23222 ft 373 kts 109°
2026-04-27 11:04 50.65496 4.92360 23215 ft 367 kts 131°
2026-04-27 11:04 50.63749 4.95230 23215 ft 366 kts 138°
2026-04-27 11:05 50.61943 4.98036 23217 ft 367 kts 138°
2026-04-27 11:05 50.60112 5.00868 23221 ft 367 kts 138°
2026-04-27 11:05 50.58299 5.03669 23223 ft 367 kts 138°
2026-04-27 11:05 50.56473 5.06486 23221 ft 367 kts 138°
2026-04-27 11:06 50.54659 5.09285 23217 ft 368 kts 138°
2026-04-27 11:06 50.52815 5.12127 23217 ft 368 kts 138°
2026-04-27 11:06 50.51001 5.14921 23171 ft 370 kts 137°
2026-04-27 11:06 50.49186 5.17719 22815 ft 366 kts 137°
2026-04-27 11:07 50.47381 5.20503 22424 ft 360 kts 137°
2026-04-27 11:07 50.45606 5.23239 22037 ft 356 kts 137°
2026-04-27 11:07 50.43847 5.25944 21652 ft 352 kts 137°
2026-04-27 11:07 50.42121 5.28593 21270 ft 349 kts 137°
2026-04-27 11:08 50.40380 5.31261 20881 ft 346 kts 137°
2026-04-27 11:08 50.38682 5.33862 20500 ft 343 kts 137°
2026-04-27 11:08 50.36974 5.36473 20118 ft 341 kts 137°
2026-04-27 11:08 50.35280 5.39062 19735 ft 339 kts 137°
2026-04-27 11:09 50.33601 5.41622 19357 ft 337 kts 137°
2026-04-27 11:09 50.31927 5.44173 18979 ft 336 kts 137°
2026-04-27 11:09 50.30273 5.46689 18605 ft 334 kts 137°
2026-04-27 11:09 50.28610 5.49219 18226 ft 333 kts 137°
2026-04-27 11:10 50.26948 5.51743 17853 ft 331 kts 137°
2026-04-27 11:10 50.25315 5.54221 17483 ft 330 kts 137°
2026-04-27 11:10 50.23667 5.56719 17106 ft 328 kts 137°
2026-04-27 11:10 50.22036 5.59188 16737 ft 327 kts 137°
2026-04-27 11:11 50.20414 5.61641 16372 ft 325 kts 136°
2026-04-27 11:11 50.18795 5.64089 16007 ft 323 kts 137°
2026-04-27 11:11 50.17191 5.66510 15631 ft 322 kts 137°
2026-04-27 11:11 50.15588 5.68929 15260 ft 320 kts 137°
2026-04-27 11:12 50.14010 5.71305 14888 ft 318 kts 137°
2026-04-27 11:12 50.12426 5.73690 14511 ft 316 kts 137°
2026-04-27 11:12 50.10854 5.76055 14137 ft 314 kts 137°
2026-04-27 11:12 50.09292 5.78401 13758 ft 312 kts 137°
2026-04-27 11:13 50.07716 5.80766 13382 ft 311 kts 137°
2026-04-27 11:13 50.06181 5.83069 13002 ft 309 kts 137°
2026-04-27 11:13 50.04625 5.85403 12619 ft 307 kts 137°
2026-04-27 11:13 50.03101 5.87686 12242 ft 306 kts 137°
2026-04-27 11:14 50.01561 5.89989 11870 ft 304 kts 137°
2026-04-27 11:14 50.00043 5.92258 11494 ft 303 kts 137°
2026-04-27 11:14 49.98542 5.94499 11115 ft 301 kts 137°
2026-04-27 11:14 49.97028 5.96757 10736 ft 300 kts 136°
2026-04-27 11:15 49.95538 5.98977 10363 ft 298 kts 136°
2026-04-27 11:15 49.94038 6.01212 9983 ft 297 kts 136°
2026-04-27 11:15 49.92548 6.03428 9617 ft 295 kts 136°
2026-04-27 11:15 49.91058 6.05643 9233 ft 294 kts 136°
2026-04-27 11:16 49.89598 6.07811 8861 ft 292 kts 137°
2026-04-27 11:16 49.88128 6.09940 8476 ft 289 kts 140°
2026-04-27 11:16 49.86339 6.11261 8059 ft 281 kts 171°
2026-04-27 11:16 49.84479 6.10910 7677 ft 267 kts 202°
2026-04-27 11:17 49.82866 6.09672 7315 ft 256 kts 209°
2026-04-27 11:17 49.81330 6.08368 6930 ft 249 kts 210°
2026-04-27 11:17 49.79831 6.07065 6590 ft 242 kts 210°
2026-04-27 11:17 49.78368 6.05774 6328 ft 241 kts 211°
2026-04-27 11:18 49.76922 6.04486 6075 ft 238 kts 211°
2026-04-27 11:18 49.75508 6.03222 5824 ft 236 kts 211°
2026-04-27 11:18 49.74091 6.01951 5576 ft 234 kts 210°
2026-04-27 11:18 49.72687 6.00688 5326 ft 232 kts 210°
2026-04-27 11:19 49.71298 5.99436 5076 ft 230 kts 210°
2026-04-27 11:19 49.69921 5.98193 4823 ft 228 kts 210°
2026-04-27 11:19 49.68562 5.96965 4575 ft 227 kts 210°
2026-04-27 11:19 49.67192 5.95728 4325 ft 226 kts 210°
2026-04-27 11:20 49.65856 5.94521 4082 ft 224 kts 210°
2026-04-27 11:20 49.64507 5.93303 3833 ft 223 kts 210°
2026-04-27 11:20 49.63167 5.92093 3584 ft 222 kts 210°
2026-04-27 11:20 49.61843 5.90917 3336 ft 221 kts 206°
2026-04-27 11:21 49.60381 5.90490 3099 ft 211 kts 166°
2026-04-27 11:21 49.59069 5.91435 3036 ft 210 kts 146°
2026-04-27 11:21 49.57807 5.92640 2994 ft 209 kts 146°
2026-04-27 11:21 49.56603 5.93812 2974 ft 204 kts 145°
2026-04-27 11:22 49.55417 5.94973 2968 ft 200 kts 144°
2026-04-27 11:22 49.54442 5.96409 2945 ft 189 kts 111°
2026-04-27 11:22 49.54420 5.98286 2972 ft 175 kts 68°
2026-04-27 11:22 49.54981 5.99908 3031 ft 170 kts 59°
2026-04-27 11:23 49.55523 6.01484 3059 ft 167 kts 66°
2026-04-27 11:23 49.55990 6.03143 3074 ft 167 kts 63°
2026-04-27 11:23 49.56541 6.04680 3094 ft 162 kts 60°
2026-04-27 11:23 49.57064 6.06159 3051 ft 153 kts 61°
2026-04-27 11:24 49.57578 6.07553 2772 ft 145 kts 60°
2026-04-27 11:24 49.58060 6.08855 2537 ft 135 kts 61°
2026-04-27 11:24 49.58517 6.10114 2412 ft 137 kts 60°
2026-04-27 11:24 49.59003 6.11420 2231 ft 137 kts 60°
2026-04-27 11:25 49.59468 6.12652 2028 ft 130 kts 60°
2026-04-27 11:25 49.59925 6.13872 1865 ft 130 kts 60°
2026-04-27 11:25 49.60395 6.15110 1690 ft 131 kts 62°
2026-04-27 11:25 49.60849 6.16338 1519 ft 133 kts 64°
2026-04-27 11:26 49.61311 6.17577 1339 ft 131 kts 59°
2026-04-27 11:26 49.61757 6.18778 1172 ft 127 kts 59°
2026-04-27 11:26 49.62143 6.19805 1197 ft 85 kts 59°
2026-04-27 11:26 49.62362 6.20393 1219 ft 36 kts 60°
2026-04-27 11:27 49.62455 6.20565 1223 ft 16 kts 27°
2026-04-27 11:27 49.62563 6.20636 1227 ft 15 kts 21°
2026-04-27 11:27 49.62623 6.20671 1230 ft 6 kts 21°
2026-04-27 11:27 49.62649 6.20687 1231 ft 2 kts 21°
2026-04-27 11:28 49.62717 6.20727 1233 ft 15 kts 20°
2026-04-27 11:28 49.62801 6.20781 1236 ft 10 kts 35°
2026-04-27 11:28 49.62834 6.20860 1238 ft 14 kts 65°
2026-04-27 11:28 49.62877 6.21002 1236 ft 13 kts 64°
2026-04-27 11:29 49.62914 6.21118 1236 ft 10 kts 64°
2026-04-27 11:29 49.62951 6.21238 1233 ft 17 kts 64°
2026-04-27 11:29 49.63001 6.21398 1229 ft 16 kts 64°
2026-04-27 11:29 49.63047 6.21545 1227 ft 13 kts 64°
2026-04-27 11:30 49.63088 6.21639 1226 ft 8 kts 16°
2026-04-27 11:30 49.63154 6.21597 1231 ft 9 kts 331°
2026-04-27 11:30 49.63201 6.21556 1234 ft 11 kts 330°
2026-04-27 11:30 49.63256 6.21502 1238 ft 6 kts 321°
2026-04-27 11:31 49.63266 6.21460 1239 ft 3 kts 250°
2026-04-27 11:31 49.63254 6.21426 1240 ft 0 kts 242°